Regional Weather Roundup
Issued by NWS Lake Charles, LA

Home | Current Version | Previous Version | Text Only | Print | Product List | Glossary On
Versions: 1 2 3 4 5 6 7 8 9 10 11 12 13 14 15 16 17 18 19 20 21 22 23 24 25 26 27 28 29 30 31 32 33 34 35 36 37 38 39 40 41 42 43 44 45 46 47 48 49 50
000
ASUS44 KLCH 160110
RWRLCH
RWRLCH
REGIONAL WEATHER ROUNDUP
NATIONAL WEATHER SERVICE LAKE CHARLES LA
800 PM CDT MON SEP 15 2014

Note: "fair" indicates few or no clouds below 12,000 feet with no
significant weather and/or obstructions to visibility.


ACROSS SOUTHEAST TEXAS

CITY           SKY/WX    TMP DP  RH WIND       PRES   REMARKS
BEAUMONT       PTCLDY    82  75  79 SE8       30.04R
BEAUMONT CITY    N/A     82  76  82 SE5       30.04R
ORANGE         PTCLDY    82  77  83 CALM      30.05R
JASPER         MOCLDY    82  73  76 NE8       30.09R
$$

ACROSS CENTRAL LOUISIANA

CITY           SKY/WX    TMP DP  RH WIND       PRES   REMARKS
LEESVILLE      MOCLDY    80  75  84 NE5       30.07R
FULLERTON        N/A     81  75  82 CALM      30.04R
ALEXANDRIA INT CLOUDY    81  75  82 N5        30.05R
ESLER FIELD    CLOUDY    81  75  82 CALM      30.07R
DERIDDER         N/A     82  75  79 CALM      30.08R HAZE
OAKDALE        MOCLDY    79  76  90 CALM      30.06R
OPELOUSAS        N/A     77  73  88 S7        30.06R
$$

ACROSS SOUTHWEST AND SOUTH CENTRAL LOUISIANA

CITY           SKY/WX    TMP DP  RH WIND       PRES   REMARKS
SULPHUR        MOCLDY    81  76  84 CALM      30.06R
LAKE CHARLES   MOCLDY    80  76  87 CALM      30.05R
CHENNAULT INT  MOCLDY    82  73  74 CALM      30.06
CAMERON PHI    CLEAR     82  77  83 SE9       30.08R
DEQUINCY       MOCLDY    80  76  87 CALM      30.05R
JENNINGS       MOCLDY    82  75  80 SE16      30.06R
LAFAYETTE      LGT RAIN  76  74  93 CALM      30.05S
NEW IBERIA     MOCLDY    77  74  90 N3        30.06F
ABBEVILLE        N/A     75  73  94 CALM      30.06R
PATTERSON      MOCLDY    79  75  89 CALM      30.09S
SALT POINT       N/A     83  77  82 CALM      30.06R
$$

SELECTED SITES ACROSS THE REGION

CITY           SKY/WX    TMP DP  RH WIND       PRES   REMARKS
HOUSTON BUSH   MOCLDY    83  76  79 SE7       30.03S
HOUSTON HOBBY  MOCLDY    83  75  77 E6        30.03R
GALVESTON      MOCLDY    84  79  85 E9        30.04R
COLLEGE STAT   CLOUDY    83  72  69 NE12      30.05R
CONROE         MOCLDY    82  72  71 CALM      30.05R
HUNTSVILLE     PTCLDY    82  73  74 NE3       30.06R
LUFKIN         CLOUDY    81  73  76 N5        30.08R
SHREVEPORT     MOCLDY    79  69  71 CALM      30.08S
MONROE         CLOUDY    79  72  79 N3        30.09R
NATCHEZ MS     PTCLDY    79  73  83 CALM      30.08R
BATON ROUGE    MOCLDY    78  74  87 CALM      30.06S
N.O. INTL ARPT CLOUDY    79  76  90 S5        30.06S
SLIDELL        CLOUDY    81  77  88 CALM      30.06R
$$

MARINE REPORTS

STATION/POSITION TIME  TEMP    WIND        PRES    VSBY  WAVE
                       AIR SEA DIR/SP/G                  HT/PER
                 (UTC) (F)     (DEG/KT/KT) (MB)    (MI)  (FT/S)
BUOY 30 S HIGH I 0100   84 85  100/ 12/ 14 1016.3R         3/ 5
SEA RIM ST PARK  0100   83     120/  7/ 10 1017.8R
PORT ARTHUR      0100      83  140/  3/  6 1017.3R
SABINE PASS N    0100   83 82  130/  9/ 11 1017.3R
TEXAS POINT      0100   83 83  120/ 11/ 12 1017.4R
CALCASIEU PASS   0100   83 82  150/ 10/ 12 1018.5R
LK CHARLES BEACH 0100   83 81              1017.5R
MARSH ISLAND     NOT AVBL
FRESH WATER LOCK 0100   82 84  120/  2/  2 1017.6S
AMERADA PASS     0100   81 86   CALM  /  2 1017.8R
$$


USA.gov is the U.S. government's official web portal to all federal, state and local government web resources and services.